sat.trackr.live / text

‹ back to catalog

CRYOSAT 2

NORAD 36508 · 2010-013A

PAYLOAD ACTIVE UNKNOWN

§ Identity

Operator
Country
ESA
Launch date
2010-04-08
Launch site
TYMSC
Launch vehicle
Mass (kg)
RCS (m²)
2.56

Purposes: science

External: N2YO · Heavens-Above · Gunter

§ Orbital elements

Epoch: 2026-09-20T04:35:26.375136Z

Period
99.18 min
Inclination
92.0269°
Eccentricity
0.0002301
Mean motion
14.51901705 rev/d
Perigee alt
717.8 km
Apogee alt
721.1 km
Semi-major
7,097.6 km
B*
2.9446e-5
RAAN
300.3681°
Arg perigee
85.6720°
Mean anomaly
274.4750°
Rev number
87,186

§ Raw data

CRYOSAT 21 36508U 10013A   26263.19127749  .00000122  00000+0  29446-4 0  99992 36508  92.0269 300.3681 0002301  85.6720 274.4750 14.51901705871869

JSON: /api/v1/satellites/36508 · /tle

For live sub-satellite position, see the globe view (requires WebGL).

§ Visibility from observer

Set your observer location to see the next 7 days of passes ≥ 10°. The values pass through the URL so the page stays shareable.

No JS? Fill the form by hand. The geolocation button needs JavaScript.

§ Radio — SatNOGS DB

ModeDescriptionDownlinkUplink
S-Band telemetry 2.201 GHz

1 transmitter · refreshed weekly from db.satnogs.org